Lid_Strength_Index
6 5 5 5 4 4 3 3 2 2 2 2 1 1 1 2 1 1 1 1 1 1 1 0 -0 0 -0 -0 -1 -0 -0 -0 -0
7 6 5 5 4 4 3 3 2 2 2 2 1 1 1 1 2 1 1 1 1 0 -0 -0 -0 -0 0 -0 -1 -0 -0 -0 0
7 6 5 4 4 3 4 3 2 2 2 2 1 1 1 1 1 1 0 1 1 0 0 0 -0 -0 -0 -0 -0 -0 -0 -0 -0
7 6 6 4 4 3 3 3 2 2 2 2 1 1 1 1 1 1 1 1 0 0 0 0 1 -0 0 0 0 -0 0 0 0
7 6 5 4 4 4 3 3 2 2 2 2 1 1 1 1 1 1 1 1 1 0 0 -0 0 1 0 0 0 -0 0 1 0
8 7 6 5 5 4 4 3 3 2 2 2 1 1 1 1 1 1 1 1 0 0 0 0 -0 -0 1 0 0 0 0 0 0
7 8 7 6 6 6 5 4 3 2 2 1 1 1 2 2 2 2 1 1 1 0 0 0 0 0 0 0 0 0 0 0 0
6 7 7 7 6 6 6 6 5 4 2 2 1 2 2 2 1 1 1 1 1 0 0 0 0 0 0 0 0 0 0 0 0
7 6 6 7 7 6 6 6 6 5 5 2 2 2 2 1 1 1 2 2 1 1 1 1 1 1 0 1 0 3 3 1 1
8 8 6 7 7 7 6 5 6 6 6 4 2 2 2 2 1 1 1 2 2 2 1 1 1 1 1 1 0 3 3 3 0
9 8 7 5 7 6 6 4 5 6 6 6 5 4 2 1 1 2 1 1 2 2 2 1 1 1 1 1 1 4 4 3 0
8 8 7 7 5 5 5 5 4 5 6 7 7 7 6 5 3 2 2 2 2 2 2 2 2 1 1 1 1 5 5 4 1
7 7 7 8 7 6 6 5 4 5 6 7 7 7 7 6 5 3 3 2 2 1 2 2 2 2 2 3 1 5 6 4 1
8 7 7 8 8 7 6 6 5 5 5 7 6 7 6 6 5 5 3 3 2 1 1 1 1 1 2 2 3 3 8 7 1
8 8 7 7 9 9 7 5 5 5 6 6 6 6 7 6 5 4 3 3 1 1 1 2 2 2 2 1 1 6 7 9 7
9 8 8 7 8 9 9 6 5 6 5 5 7 7 6 6 5 5 4 4 2 2 2 2 3 2 2 2 1 1 8 10 9
8 8 9 8 8 9 10 8 6 5 5 6 7 7 7 7 7 6 4 3 3 2 2 2 3 3 3 2 2 1 1 4 7
8 8 8 8 8 8 9 9 8 6 6 6 8 8 8 7 7 7 5 4 4 3 2 2 2 2 2 2 3 2 3 3 2
7 7 7 7 8 8 8 8 8 7 6 7 8 7 7 8 8 7 5 4 4 7 9 11 13 11 5 1 6 9 12 12 12
7 7 6 6 6 7 7 7 7 5 6 8 8 8 8 8 8 7 6 5 4 5 4 9 11 14 13 12 7 13 14 14 14